RYR7 LIBD-LFOB

Flight info

Callsign RYR7
Flight time 2h 21m
Altitude 38000
Route PISIP DCT VIE DCT PETAS DCT OSBUL DCT AOSTA DCT ORSUD DCT MOLUS DCT UNKIR DCT GIVRI DCT TINIL
Aircraft B738/M-SDE2E3FGHIRWXY/LB1

Departure

Time 2026-04-21 17:55
Airport Bari Karol Wojtyła International Airport (LIBD)

Arrival

Time 2026-04-21 20:16
Airport Beauvais-Tillé airport (LFOB)
Time Latitude Longitude Altitude Speed Heading
2026-04-21 17:41 41.13529 16.76343 135 ft 0 kts 159°
2026-04-21 17:47 41.13543 16.76337 135 ft 4 kts 163°
2026-04-21 17:47 41.13569 16.76329 135 ft 4 kts 179°
2026-04-21 17:47 41.13594 16.76334 135 ft 4 kts 214°
2026-04-21 17:48 41.13604 16.76347 135 ft 0 kts 249°
2026-04-21 17:50 41.13600 16.76333 135 ft 5 kts 249°
2026-04-21 17:50 41.13577 16.76254 135 ft 13 kts 250°
2026-04-21 17:50 41.13560 16.76115 135 ft 16 kts 298°
2026-04-21 17:50 41.13635 16.76009 135 ft 16 kts 290°
2026-04-21 17:51 41.13612 16.75876 136 ft 15 kts 249°
2026-04-21 17:51 41.13576 16.75749 137 ft 14 kts 250°
2026-04-21 17:51 41.13541 16.75623 137 ft 16 kts 249°
2026-04-21 17:51 41.13501 16.75484 141 ft 16 kts 249°
2026-04-21 17:52 41.13456 16.75324 141 ft 20 kts 249°
2026-04-21 17:52 41.13404 16.75141 145 ft 21 kts 249°
2026-04-21 17:52 41.13349 16.74950 147 ft 24 kts 249°
2026-04-21 17:52 41.13287 16.74735 148 ft 26 kts 249°
2026-04-21 17:53 41.13223 16.74508 152 ft 27 kts 250°
2026-04-21 17:53 41.13180 16.74356 153 ft 11 kts 249°
2026-04-21 17:53 41.13164 16.74250 151 ft 14 kts 284°
2026-04-21 17:53 41.13230 16.74128 145 ft 19 kts 318°
2026-04-21 17:54 41.13326 16.74195 146 ft 19 kts 69°
2026-04-21 17:54 41.13402 16.74464 145 ft 60 kts 69°
2026-04-21 17:54 41.13626 16.75260 139 ft 123 kts 69°
2026-04-21 17:54 41.14005 16.76529 260 ft 164 kts 66°
2026-04-21 17:55 41.14487 16.77878 1081 ft 158 kts 66°
2026-04-21 17:55 41.14856 16.79280 1789 ft 162 kts 70°
2026-04-21 17:55 41.15260 16.80787 2184 ft 188 kts 69°
2026-04-21 17:55 41.15741 16.82509 2427 ft 214 kts 69°
2026-04-21 17:56 41.16298 16.84469 2606 ft 238 kts 69°
2026-04-21 17:56 41.16899 16.86561 3137 ft 243 kts 68°
2026-04-21 17:56 41.17527 16.88667 3833 ft 247 kts 61°
2026-04-21 17:56 41.18582 16.90435 4461 ft 248 kts 36°
2026-04-21 17:57 41.20074 16.91590 5112 ft 249 kts 20°
2026-04-21 17:57 41.21730 16.92197 5710 ft 248 kts 353°
2026-04-21 17:57 41.23401 16.91733 6414 ft 246 kts 340°
2026-04-21 17:57 41.25053 16.91116 7012 ft 252 kts 340°
2026-04-21 17:58 41.26767 16.90478 7645 ft 258 kts 340°
2026-04-21 17:58 41.28516 16.89831 8287 ft 264 kts 340°
2026-04-21 17:58 41.30304 16.89173 8940 ft 269 kts 340°
2026-04-21 17:58 41.32128 16.88503 9610 ft 274 kts 340°
2026-04-21 17:59 41.33965 16.87829 10233 ft 278 kts 340°
2026-04-21 17:59 41.35859 16.87135 10837 ft 283 kts 340°
2026-04-21 17:59 41.37723 16.86263 11452 ft 284 kts 326°
2026-04-21 17:59 41.39238 16.84583 12119 ft 283 kts 310°
2026-04-21 18:00 41.40563 16.82616 12771 ft 288 kts 309°
2026-04-21 18:00 41.41871 16.80603 13434 ft 293 kts 308°
2026-04-21 18:00 41.43215 16.78534 14068 ft 298 kts 308°
2026-04-21 18:00 41.44588 16.76431 14676 ft 303 kts 309°
2026-04-21 18:01 41.45994 16.74291 15298 ft 308 kts 309°
2026-04-21 18:01 41.47421 16.72126 15933 ft 313 kts 309°
2026-04-21 18:01 41.48871 16.69932 16575 ft 317 kts 309°
2026-04-21 18:01 41.50357 16.67681 16784 ft 336 kts 309°
2026-04-21 18:02 41.51949 16.65268 16931 ft 354 kts 309°
2026-04-21 18:02 41.53623 16.62730 17054 ft 371 kts 309°
2026-04-21 18:02 41.55344 16.60114 17219 ft 385 kts 309°
2026-04-21 18:02 41.57133 16.57389 17635 ft 392 kts 309°
2026-04-21 18:03 41.58938 16.54640 18240 ft 393 kts 309°
2026-04-21 18:03 41.60751 16.51877 18788 ft 394 kts 309°
2026-04-21 18:03 41.62544 16.49141 19309 ft 396 kts 309°
2026-04-21 18:03 41.64363 16.46362 19817 ft 397 kts 309°
2026-04-21 18:04 41.66200 16.43552 20309 ft 400 kts 309°
2026-04-21 18:04 41.68012 16.40778 20778 ft 402 kts 309°
2026-04-21 18:04 41.69858 16.37948 21248 ft 403 kts 309°
2026-04-21 18:04 41.71715 16.35099 21732 ft 405 kts 309°
2026-04-21 18:05 41.73568 16.32254 22178 ft 407 kts 309°
2026-04-21 18:05 41.75434 16.29385 22621 ft 408 kts 309°
2026-04-21 18:05 41.77290 16.26531 23046 ft 410 kts 309°
2026-04-21 18:05 41.79167 16.23640 23440 ft 413 kts 309°
2026-04-21 18:06 41.81074 16.20699 23764 ft 415 kts 309°
2026-04-21 18:06 41.82945 16.17811 24090 ft 417 kts 309°
2026-04-21 18:06 41.84856 16.14860 24431 ft 419 kts 309°
2026-04-21 18:06 41.86779 16.11886 24759 ft 421 kts 309°
2026-04-21 18:07 41.88704 16.08907 25119 ft 422 kts 309°
2026-04-21 18:07 41.90605 16.05963 25453 ft 423 kts 309°
2026-04-21 18:07 41.92526 16.02937 25754 ft 425 kts 308°
2026-04-21 18:07 41.94380 15.99831 26059 ft 426 kts 307°
2026-04-21 18:08 41.96202 15.96679 26453 ft 424 kts 306°
2026-04-21 18:08 41.97979 15.93576 26939 ft 421 kts 306°
2026-04-21 18:08 41.99768 15.90454 27403 ft 419 kts 306°
2026-04-21 18:08 42.01536 15.87377 27794 ft 419 kts 306°
2026-04-21 18:09 42.03325 15.84274 28178 ft 419 kts 306°
2026-04-21 18:09 42.05113 15.81181 28617 ft 417 kts 306°
2026-04-21 18:09 42.06292 15.79143 28926 ft 416 kts 306°
2026-04-21 18:09 42.08673 15.75030 29510 ft 414 kts 306°
2026-04-21 18:10 42.10425 15.72003 29914 ft 414 kts 306°
2026-04-21 18:10 42.12193 15.68944 30280 ft 413 kts 306°
2026-04-21 18:10 42.13959 15.65887 30612 ft 412 kts 306°
2026-04-21 18:10 42.15715 15.62844 30942 ft 412 kts 306°
2026-04-21 18:11 42.17469 15.59802 31377 ft 408 kts 306°
2026-04-21 18:11 42.19213 15.56774 31715 ft 408 kts 306°
2026-04-21 18:11 42.20934 15.53782 31973 ft 409 kts 306°
2026-04-21 18:11 42.22683 15.50737 32258 ft 409 kts 306°
2026-04-21 18:12 42.24426 15.47701 32604 ft 408 kts 305°
2026-04-21 18:12 42.26162 15.44674 32941 ft 407 kts 305°
2026-04-21 18:12 42.27904 15.41634 33223 ft 407 kts 305°
2026-04-21 18:12 42.29608 15.38655 33497 ft 407 kts 305°
2026-04-21 18:13 42.31345 15.35617 33824 ft 406 kts 305°
2026-04-21 18:13 42.33074 15.32591 34105 ft 406 kts 305°
2026-04-21 18:13 42.34807 15.29553 34320 ft 406 kts 305°
2026-04-21 18:13 42.36534 15.26522 34530 ft 407 kts 305°
2026-04-21 18:14 42.39968 15.20489 35014 ft 406 kts 305°
2026-04-21 18:14 42.41698 15.17446 35263 ft 406 kts 305°
2026-04-21 18:14 42.43399 15.14450 35516 ft 405 kts 305°
2026-04-21 18:15 42.45119 15.11416 35766 ft 404 kts 305°
2026-04-21 18:15 42.46837 15.08384 35957 ft 405 kts 305°
2026-04-21 18:15 42.48541 15.05373 36124 ft 406 kts 305°
2026-04-21 18:15 42.50267 15.02320 36328 ft 406 kts 305°
2026-04-21 18:16 42.51973 14.99301 36541 ft 406 kts 305°
2026-04-21 18:16 42.53693 14.96252 36714 ft 407 kts 305°
2026-04-21 18:16 42.55413 14.93201 36897 ft 407 kts 305°
2026-04-21 18:16 42.57135 14.90143 37115 ft 406 kts 305°
2026-04-21 18:17 42.58831 14.87128 37343 ft 406 kts 305°
2026-04-21 18:17 42.60546 14.84076 37502 ft 406 kts 305°
2026-04-21 18:17 42.62269 14.81008 37649 ft 407 kts 305°
2026-04-21 18:17 42.63983 14.77952 37842 ft 407 kts 305°
2026-04-21 18:18 42.65707 14.74875 37981 ft 408 kts 305°
2026-04-21 18:18 42.69140 14.68736 37999 ft 410 kts 305°
2026-04-21 18:19 42.72582 14.62572 37990 ft 407 kts 305°
2026-04-21 18:19 42.75980 14.56473 37983 ft 404 kts 305°
2026-04-21 18:20 42.79372 14.50372 37985 ft 402 kts 305°
2026-04-21 18:20 42.82177 14.45316 37985 ft 401 kts 305°
2026-04-21 18:21 42.86085 14.38260 37990 ft 400 kts 305°
2026-04-21 18:21 42.89424 14.32216 37990 ft 400 kts 305°
2026-04-21 18:22 42.92214 14.27156 37989 ft 401 kts 305°
2026-04-21 18:22 42.96121 14.20057 37980 ft 402 kts 305°
2026-04-21 18:23 42.98918 14.14965 37983 ft 403 kts 305°
2026-04-21 18:23 43.02283 14.08828 37996 ft 403 kts 304°
2026-04-21 18:24 43.05625 14.02718 37996 ft 403 kts 304°
2026-04-21 18:24 43.08994 13.96547 37997 ft 403 kts 304°
2026-04-21 18:25 43.12329 13.90427 37998 ft 403 kts 304°
2026-04-21 18:25 43.15686 13.84252 37997 ft 403 kts 304°
2026-04-21 18:26 43.19025 13.78098 37992 ft 402 kts 304°
2026-04-21 18:26 43.22342 13.71972 38009 ft 402 kts 304°
2026-04-21 18:27 43.25688 13.65780 38002 ft 402 kts 304°
2026-04-21 18:27 43.29000 13.59637 38002 ft 402 kts 304°
2026-04-21 18:28 43.32324 13.53459 38006 ft 401 kts 304°
2026-04-21 18:28 43.35627 13.47308 37989 ft 401 kts 304°
2026-04-21 18:29 43.38944 13.41117 38006 ft 401 kts 304°
2026-04-21 18:29 43.42254 13.34927 37997 ft 401 kts 304°
2026-04-21 18:30 43.45534 13.28780 38028 ft 401 kts 304°
2026-04-21 18:30 43.48828 13.22593 38009 ft 402 kts 304°
2026-04-21 18:31 43.52136 13.16366 38009 ft 402 kts 304°
2026-04-21 18:31 43.55421 13.10171 38011 ft 402 kts 304°
2026-04-21 18:32 43.58729 13.03918 38004 ft 402 kts 304°
2026-04-21 18:32 43.62019 12.97686 38009 ft 402 kts 304°
2026-04-21 18:33 43.65296 12.91466 38011 ft 402 kts 304°
2026-04-21 18:33 43.68591 12.85201 38015 ft 402 kts 304°
2026-04-21 18:34 43.71865 12.78959 38009 ft 402 kts 304°
2026-04-21 18:34 43.75131 12.72719 38008 ft 402 kts 304°
2026-04-21 18:35 43.77866 12.67485 38007 ft 402 kts 304°
2026-04-21 18:35 43.81685 12.60159 38008 ft 403 kts 304°
2026-04-21 18:36 43.84975 12.53834 38001 ft 403 kts 304°
2026-04-21 18:36 43.88243 12.47537 37997 ft 403 kts 304°
2026-04-21 18:37 43.91514 12.41222 37995 ft 403 kts 304°
2026-04-21 18:37 43.94751 12.34957 38027 ft 402 kts 304°
2026-04-21 18:38 43.98017 12.28624 38010 ft 402 kts 304°
2026-04-21 18:38 44.01274 12.22293 38025 ft 402 kts 304°
2026-04-21 18:39 44.04512 12.15988 37999 ft 403 kts 304°
2026-04-21 18:39 44.07766 12.09635 38003 ft 403 kts 304°
2026-04-21 18:40 44.11014 12.03281 37978 ft 403 kts 304°
2026-04-21 18:40 44.13731 11.97956 37996 ft 403 kts 304°
2026-04-21 18:41 44.17502 11.90547 37994 ft 403 kts 304°
2026-04-21 18:41 44.20729 11.84194 38005 ft 402 kts 304°
2026-04-21 18:42 44.23962 11.77812 38011 ft 402 kts 303°
2026-04-21 18:42 44.27174 11.71459 38017 ft 402 kts 304°
2026-04-21 18:43 44.30397 11.65071 38021 ft 401 kts 303°
2026-04-21 18:43 44.33595 11.58718 38017 ft 400 kts 303°
2026-04-21 18:44 44.36522 11.52103 38009 ft 399 kts 297°
2026-04-21 18:44 44.39103 11.45226 37987 ft 399 kts 297°
2026-04-21 18:45 44.41661 11.38370 37973 ft 399 kts 297°
2026-04-21 18:45 44.44237 11.31526 37976 ft 399 kts 297°
2026-04-21 18:46 44.46836 11.24642 38033 ft 399 kts 297°
2026-04-21 18:46 44.49423 11.17786 38035 ft 399 kts 297°
2026-04-21 18:47 44.52019 11.10888 38040 ft 399 kts 297°
2026-04-21 18:47 44.54608 11.03993 38042 ft 399 kts 297°
2026-04-21 18:48 44.57180 10.97123 38040 ft 399 kts 297°
2026-04-21 18:48 44.59748 10.90250 38033 ft 399 kts 297°
2026-04-21 18:49 44.62325 10.83333 38034 ft 399 kts 297°
2026-04-21 18:49 44.64463 10.77583 38021 ft 399 kts 297°
2026-04-21 18:50 44.67446 10.69537 38021 ft 399 kts 297°
2026-04-21 18:50 44.70009 10.62608 38025 ft 399 kts 297°
2026-04-21 18:51 44.72552 10.55713 38019 ft 400 kts 297°
2026-04-21 18:51 44.75112 10.48753 38006 ft 400 kts 297°
2026-04-21 18:52 44.77659 10.41815 38007 ft 400 kts 297°
2026-04-21 18:52 44.80218 10.34825 37995 ft 400 kts 297°
2026-04-21 18:53 44.82755 10.27862 37957 ft 400 kts 296°
2026-04-21 18:53 44.85227 10.20806 37969 ft 401 kts 295°
2026-04-21 18:54 44.87659 10.13768 37969 ft 401 kts 295°
2026-04-21 18:54 44.90107 10.06680 37969 ft 401 kts 295°
2026-04-21 18:55 44.92143 10.00784 37953 ft 401 kts 295°
2026-04-21 18:55 44.94979 9.92563 37932 ft 401 kts 295°
2026-04-21 18:56 44.97424 9.85455 37948 ft 402 kts 295°
2026-04-21 18:56 44.99854 9.78372 37943 ft 402 kts 295°
2026-04-21 18:57 45.02301 9.71223 37948 ft 403 kts 295°
2026-04-21 18:57 45.04741 9.64073 37945 ft 403 kts 295°
2026-04-21 18:58 45.07164 9.56952 37940 ft 404 kts 295°
2026-04-21 18:58 45.09601 9.49774 37947 ft 404 kts 295°
2026-04-21 18:59 45.12022 9.42625 37946 ft 405 kts 295°
2026-04-21 18:59 45.14454 9.35421 37953 ft 405 kts 295°
2026-04-21 19:00 45.16888 9.28193 37952 ft 405 kts 295°
2026-04-21 19:00 45.19293 9.21029 37955 ft 404 kts 295°
2026-04-21 19:01 45.21714 9.13800 37978 ft 404 kts 295°
2026-04-21 19:01 45.24115 9.06613 37956 ft 405 kts 295°
2026-04-21 19:02 45.26529 8.99363 37952 ft 405 kts 295°
2026-04-21 19:02 45.28942 8.92100 37949 ft 405 kts 295°
2026-04-21 19:03 45.31324 8.84907 37952 ft 404 kts 295°
2026-04-21 19:03 45.33717 8.77662 37948 ft 403 kts 295°
2026-04-21 19:04 45.36097 8.70439 37944 ft 403 kts 295°
2026-04-21 19:04 45.38461 8.63243 37946 ft 402 kts 295°
2026-04-21 19:05 45.40826 8.56022 37945 ft 402 kts 295°
2026-04-21 19:05 45.43188 8.48794 37934 ft 402 kts 295°
2026-04-21 19:06 45.45525 8.41620 37969 ft 402 kts 295°
2026-04-21 19:06 45.47887 8.34351 37974 ft 402 kts 295°
2026-04-21 19:07 45.50239 8.27090 37969 ft 403 kts 295°
2026-04-21 19:07 45.52574 8.19865 37965 ft 403 kts 295°
2026-04-21 19:08 45.54918 8.12590 37956 ft 403 kts 295°
2026-04-21 19:08 45.57255 8.05316 37973 ft 404 kts 295°
2026-04-21 19:09 45.59207 7.99225 37968 ft 404 kts 295°
2026-04-21 19:09 45.61921 7.90732 37952 ft 404 kts 295°
2026-04-21 19:10 45.63863 7.84632 37962 ft 405 kts 295°
2026-04-21 19:10 45.66138 7.77318 37925 ft 401 kts 295°
2026-04-21 19:11 45.68474 7.70043 37983 ft 403 kts 295°
2026-04-21 19:11 45.70798 7.62749 37967 ft 406 kts 295°
2026-04-21 19:12 45.73137 7.55335 37975 ft 410 kts 295°
2026-04-21 19:12 45.75484 7.47866 37926 ft 410 kts 295°
2026-04-21 19:13 45.77811 7.40479 37938 ft 409 kts 297°
2026-04-21 19:13 45.81110 7.33834 37947 ft 410 kts 311°
2026-04-21 19:14 45.85457 7.28533 37961 ft 413 kts 322°
2026-04-21 19:14 45.90194 7.23832 37979 ft 413 kts 322°
2026-04-21 19:15 45.94913 7.19060 37982 ft 414 kts 322°
2026-04-21 19:15 45.99581 7.14288 37997 ft 414 kts 322°
2026-04-21 19:16 46.04267 7.09484 38016 ft 411 kts 322°
2026-04-21 19:16 46.08909 7.04718 37989 ft 410 kts 322°
2026-04-21 19:17 46.15799 6.97629 38038 ft 403 kts 322°
2026-04-21 19:17 46.20359 6.92916 38033 ft 407 kts 322°
2026-04-21 19:18 46.25011 6.88102 38012 ft 412 kts 322°
2026-04-21 19:18 46.29652 6.83292 38009 ft 413 kts 322°
2026-04-21 19:19 46.34344 6.78417 37991 ft 413 kts 322°
2026-04-21 19:19 46.38982 6.73590 38027 ft 413 kts 322°
2026-04-21 19:20 46.43450 6.68393 38021 ft 410 kts 313°
2026-04-21 19:20 46.46895 6.61818 38025 ft 409 kts 300°
2026-04-21 19:21 46.49689 6.54680 38031 ft 408 kts 300°
2026-04-21 19:21 46.52490 6.47497 38022 ft 408 kts 300°
2026-04-21 19:22 46.55287 6.40361 38036 ft 407 kts 300°
2026-04-21 19:22 46.58100 6.33191 38033 ft 407 kts 300°
2026-04-21 19:23 46.60900 6.26041 38045 ft 407 kts 300°
2026-04-21 19:23 46.63682 6.18918 38040 ft 407 kts 300°
2026-04-21 19:24 46.66480 6.11735 38042 ft 407 kts 300°
2026-04-21 19:24 46.69255 6.04590 38047 ft 407 kts 300°
2026-04-21 19:25 46.72049 5.97378 38037 ft 407 kts 300°
2026-04-21 19:25 46.74815 5.90220 38040 ft 407 kts 300°
2026-04-21 19:26 46.77591 5.83019 38037 ft 407 kts 299°
2026-04-21 19:26 46.80533 5.76031 38029 ft 407 kts 309°
2026-04-21 19:27 46.84648 5.70324 38015 ft 410 kts 322°
2026-04-21 19:27 46.89604 5.66105 38027 ft 413 kts 328°
2026-04-21 19:28 46.94646 5.62142 38048 ft 413 kts 328°
2026-04-21 19:28 46.99710 5.58115 38050 ft 413 kts 328°
2026-04-21 19:29 47.04726 5.54081 38089 ft 414 kts 328°
2026-04-21 19:29 47.09798 5.49982 38057 ft 415 kts 328°
2026-04-21 19:30 47.14835 5.45902 38066 ft 415 kts 328°
2026-04-21 19:30 47.19911 5.41782 38072 ft 415 kts 328°
2026-04-21 19:31 47.24943 5.37690 38016 ft 416 kts 328°
2026-04-21 19:31 47.27500 5.35606 37558 ft 418 kts 328°
2026-04-21 19:31 47.30030 5.33545 37054 ft 412 kts 328°
2026-04-21 19:32 47.32507 5.31526 36533 ft 408 kts 328°
2026-04-21 19:32 47.34992 5.29498 35931 ft 406 kts 327°
2026-04-21 19:32 47.37464 5.27477 35286 ft 405 kts 327°
2026-04-21 19:32 47.39913 5.25473 34783 ft 400 kts 327°
2026-04-21 19:33 47.41532 5.24146 34239 ft 402 kts 327°
2026-04-21 19:33 47.44742 5.21513 33391 ft 396 kts 327°
2026-04-21 19:33 47.47169 5.19519 32615 ft 396 kts 327°
2026-04-21 19:33 47.49580 5.17536 31885 ft 396 kts 327°
2026-04-21 19:34 47.51984 5.15557 31179 ft 395 kts 327°
2026-04-21 19:34 47.54360 5.13600 30481 ft 394 kts 327°
2026-04-21 19:34 47.56761 5.11620 29647 ft 395 kts 327°
2026-04-21 19:34 47.59130 5.09608 28848 ft 392 kts 323°
2026-04-21 19:35 47.61260 5.07140 28153 ft 385 kts 317°
2026-04-21 19:35 47.65299 5.01911 26685 ft 380 kts 317°
2026-04-21 19:35 47.67299 4.99345 26058 ft 377 kts 317°
2026-04-21 19:36 47.69264 4.96874 25403 ft 374 kts 320°
2026-04-21 19:36 47.71413 4.94776 25455 ft 367 kts 326°
2026-04-21 19:36 47.73649 4.92796 25432 ft 378 kts 326°
2026-04-21 19:36 47.75942 4.90760 25431 ft 387 kts 326°
2026-04-21 19:37 47.78243 4.88709 25425 ft 395 kts 326°
2026-04-21 19:37 47.80624 4.86580 25424 ft 400 kts 326°
2026-04-21 19:37 47.83013 4.84439 25415 ft 399 kts 326°
2026-04-21 19:37 47.85396 4.82300 25420 ft 399 kts 326°
2026-04-21 19:38 47.87771 4.80163 25418 ft 398 kts 326°
2026-04-21 19:38 47.90111 4.78053 25414 ft 395 kts 326°
2026-04-21 19:38 47.91691 4.76628 25360 ft 388 kts 326°
2026-04-21 19:38 47.94709 4.73902 24629 ft 378 kts 326°
2026-04-21 19:39 47.96970 4.71855 24421 ft 381 kts 326°
2026-04-21 19:39 47.99261 4.69774 24318 ft 390 kts 326°
2026-04-21 19:39 48.01604 4.67644 24209 ft 398 kts 326°
2026-04-21 19:39 48.03986 4.65477 24070 ft 398 kts 326°
2026-04-21 19:40 48.06293 4.63382 23615 ft 387 kts 326°
2026-04-21 19:40 48.08547 4.61334 23596 ft 371 kts 326°
2026-04-21 19:40 48.10779 4.59302 23634 ft 379 kts 326°
2026-04-21 19:40 48.13074 4.57206 23336 ft 385 kts 326°
2026-04-21 19:41 48.15334 4.55141 23107 ft 383 kts 327°
2026-04-21 19:41 48.17594 4.53075 22844 ft 383 kts 327°
2026-04-21 19:41 48.19877 4.50986 22569 ft 384 kts 327°
2026-04-21 19:41 48.22152 4.48901 22290 ft 382 kts 327°
2026-04-21 19:42 48.24398 4.46843 21677 ft 376 kts 327°
2026-04-21 19:42 48.26638 4.44787 20894 ft 375 kts 327°
2026-04-21 19:42 48.28875 4.42730 20221 ft 375 kts 327°
2026-04-21 19:42 48.31094 4.40689 19862 ft 375 kts 327°
2026-04-21 19:43 48.33332 4.38627 19509 ft 386 kts 328°
2026-04-21 19:43 48.35644 4.36495 19158 ft 391 kts 328°
2026-04-21 19:43 48.37975 4.34344 18795 ft 394 kts 328°
2026-04-21 19:43 48.40326 4.32173 18439 ft 396 kts 328°
2026-04-21 19:44 48.42684 4.29992 18030 ft 398 kts 328°
2026-04-21 19:44 48.45003 4.27845 17615 ft 392 kts 328°
2026-04-21 19:44 48.47312 4.25706 17210 ft 386 kts 328°
2026-04-21 19:44 48.49599 4.23584 16823 ft 386 kts 328°
2026-04-21 19:45 48.51876 4.21469 16457 ft 386 kts 328°
2026-04-21 19:45 48.54166 4.19339 16077 ft 386 kts 329°
2026-04-21 19:45 48.56444 4.17219 15700 ft 385 kts 329°
2026-04-21 19:45 48.58744 4.15076 15330 ft 385 kts 329°
2026-04-21 19:46 48.60993 4.12978 14965 ft 384 kts 329°
2026-04-21 19:46 48.63273 4.10849 14597 ft 383 kts 329°
2026-04-21 19:46 48.65541 4.08729 14236 ft 382 kts 329°
2026-04-21 19:46 48.67796 4.06618 13852 ft 381 kts 329°
2026-04-21 19:47 48.70045 4.04511 13339 ft 376 kts 329°
2026-04-21 19:47 48.72258 4.02435 12756 ft 371 kts 329°
2026-04-21 19:47 48.74456 4.00371 12163 ft 368 kts 329°
2026-04-21 19:47 48.76590 3.98364 11580 ft 364 kts 329°
2026-04-21 19:48 48.78724 3.96356 11312 ft 353 kts 330°
2026-04-21 19:48 48.80776 3.94422 11139 ft 340 kts 330°
2026-04-21 19:48 48.82760 3.92551 10978 ft 329 kts 330°
2026-04-21 19:48 48.84648 3.90769 10846 ft 318 kts 330°
2026-04-21 19:49 48.86499 3.89020 10712 ft 308 kts 330°
2026-04-21 19:49 48.88292 3.87326 10577 ft 299 kts 330°
2026-04-21 19:49 48.90037 3.85675 10448 ft 290 kts 330°
2026-04-21 19:49 48.91725 3.84077 10332 ft 282 kts 330°
2026-04-21 19:50 48.92825 3.83035 10241 ft 276 kts 330°
2026-04-21 19:50 48.94963 3.81010 9938 ft 272 kts 330°
2026-04-21 19:50 48.96571 3.79486 9648 ft 270 kts 330°
2026-04-21 19:50 48.98148 3.77988 9352 ft 269 kts 331°
2026-04-21 19:51 48.99739 3.76477 9065 ft 269 kts 331°
2026-04-21 19:51 49.01296 3.74884 8747 ft 272 kts 321°
2026-04-21 19:51 49.02546 3.72697 8474 ft 275 kts 310°
2026-04-21 19:51 49.03709 3.70362 8205 ft 278 kts 310°
2026-04-21 19:52 49.04866 3.68032 7961 ft 279 kts 310°
2026-04-21 19:52 49.06051 3.65666 7701 ft 279 kts 311°
2026-04-21 19:52 49.07234 3.63325 7442 ft 277 kts 311°
2026-04-21 19:52 49.08420 3.60997 7235 ft 277 kts 311°
2026-04-21 19:53 49.09607 3.58683 7213 ft 281 kts 312°
2026-04-21 19:53 49.10815 3.56333 7182 ft 280 kts 312°
2026-04-21 19:53 49.12014 3.54001 7185 ft 277 kts 312°
2026-04-21 19:53 49.13206 3.51687 7184 ft 278 kts 312°
2026-04-21 19:54 49.14393 3.49383 7180 ft 279 kts 312°
2026-04-21 19:54 49.15590 3.47035 7184 ft 280 kts 308°
2026-04-21 19:54 49.16470 3.44387 7191 ft 284 kts 294°
2026-04-21 19:54 49.17142 3.41530 7187 ft 286 kts 291°
2026-04-21 19:55 49.17761 3.38625 7184 ft 286 kts 290°
2026-04-21 19:55 49.18367 3.35722 7190 ft 286 kts 290°
2026-04-21 19:55 49.18965 3.32867 7182 ft 286 kts 290°
2026-04-21 19:55 49.19575 3.29976 7187 ft 285 kts 290°
2026-04-21 19:56 49.20187 3.27089 7188 ft 285 kts 290°
2026-04-21 19:56 49.20829 3.24088 7224 ft 312 kts 290°
2026-04-21 19:56 49.21527 3.20833 7194 ft 326 kts 290°
2026-04-21 19:56 49.22226 3.17565 7192 ft 327 kts 290°
2026-04-21 19:57 49.22932 3.14259 7182 ft 327 kts 290°
2026-04-21 19:57 49.23641 3.10940 7190 ft 327 kts 290°
2026-04-21 19:57 49.24110 3.08743 7180 ft 328 kts 290°
2026-04-21 19:57 49.25057 3.04304 7178 ft 328 kts 290°
2026-04-21 19:58 49.25525 3.02105 7181 ft 328 kts 290°
2026-04-21 19:58 49.26230 2.98791 7183 ft 327 kts 290°
2026-04-21 19:58 49.26934 2.95481 7176 ft 327 kts 290°
2026-04-21 19:58 49.27642 2.92147 7182 ft 328 kts 290°
2026-04-21 19:59 49.28348 2.88816 7180 ft 328 kts 290°
2026-04-21 19:59 49.29054 2.85484 7187 ft 328 kts 290°
2026-04-21 19:59 49.29748 2.82199 7193 ft 328 kts 290°
2026-04-21 19:59 49.30454 2.78852 7179 ft 329 kts 290°
2026-04-21 20:00 49.31157 2.75517 7194 ft 329 kts 290°
2026-04-21 20:00 49.31858 2.72181 7191 ft 329 kts 290°
2026-04-21 20:00 49.32561 2.68832 7201 ft 329 kts 290°
2026-04-21 20:00 49.33254 2.65524 7204 ft 329 kts 289°
2026-04-21 20:01 49.33951 2.62195 7201 ft 329 kts 289°
2026-04-21 20:01 49.34649 2.58852 7190 ft 329 kts 289°
2026-04-21 20:01 49.35350 2.55490 7186 ft 329 kts 289°
2026-04-21 20:01 49.36082 2.52221 7187 ft 327 kts 296°
2026-04-21 20:02 49.37256 2.49281 7060 ft 320 kts 309°
2026-04-21 20:02 49.38612 2.46581 6697 ft 318 kts 311°
2026-04-21 20:02 49.40005 2.43879 6164 ft 322 kts 311°
2026-04-21 20:02 49.41376 2.41219 5801 ft 320 kts 312°
2026-04-21 20:03 49.42753 2.38535 5485 ft 316 kts 312°
2026-04-21 20:03 49.44080 2.35929 5405 ft 304 kts 312°
2026-04-21 20:03 49.45357 2.33404 5322 ft 293 kts 311°
2026-04-21 20:03 49.46572 2.30986 5234 ft 283 kts 312°
2026-04-21 20:04 49.47752 2.28621 5164 ft 274 kts 312°
2026-04-21 20:04 49.48888 2.26326 5090 ft 266 kts 312°
2026-04-21 20:04 49.49989 2.24083 5017 ft 257 kts 312°
2026-04-21 20:04 49.51057 2.21919 4938 ft 249 kts 311°
2026-04-21 20:05 49.52085 2.19878 4872 ft 240 kts 311°
2026-04-21 20:05 49.53092 2.17881 4790 ft 231 kts 311°
2026-04-21 20:05 49.54063 2.15950 4725 ft 222 kts 311°
2026-04-21 20:05 49.54986 2.14104 4614 ft 213 kts 311°
2026-04-21 20:06 49.55877 2.12309 4341 ft 213 kts 312°
2026-04-21 20:06 49.56772 2.10496 4052 ft 212 kts 311°
2026-04-21 20:06 49.57663 2.08683 3748 ft 212 kts 311°
2026-04-21 20:06 49.58550 2.06872 3492 ft 211 kts 312°
2026-04-21 20:07 49.59417 2.05091 3222 ft 210 kts 312°
2026-04-21 20:07 49.60279 2.03278 3067 ft 212 kts 312°
2026-04-21 20:07 49.61150 2.01423 3031 ft 213 kts 311°
2026-04-21 20:07 49.62010 1.99581 3013 ft 211 kts 311°
2026-04-21 20:08 49.62622 1.97519 3008 ft 215 kts 283°
2026-04-21 20:08 49.62675 1.95203 3039 ft 218 kts 271°
2026-04-21 20:08 49.62671 1.92839 3046 ft 223 kts 271°
2026-04-21 20:08 49.62675 1.90458 3031 ft 226 kts 271°
2026-04-21 20:09 49.62679 1.88046 3018 ft 219 kts 270°
2026-04-21 20:09 49.62368 1.85804 3000 ft 211 kts 240°
2026-04-21 20:09 49.61469 1.84135 3007 ft 201 kts 209°
2026-04-21 20:09 49.60216 1.83377 3021 ft 188 kts 176°
2026-04-21 20:10 49.58957 1.83560 3028 ft 181 kts 161°
2026-04-21 20:10 49.57717 1.83926 3015 ft 179 kts 153°
2026-04-21 20:10 49.56827 1.85012 3020 ft 159 kts 112°
2026-04-21 20:10 49.56258 1.86482 3020 ft 163 kts 121°
2026-04-21 20:11 49.55582 1.87887 3024 ft 163 kts 117°
2026-04-21 20:11 49.54961 1.89348 3032 ft 163 kts 117°
2026-04-21 20:11 49.54337 1.90804 3022 ft 163 kts 117°
2026-04-21 20:11 49.53714 1.92242 3023 ft 163 kts 117°
2026-04-21 20:12 49.53082 1.93695 2951 ft 163 kts 117°
2026-04-21 20:12 49.52460 1.95119 2756 ft 157 kts 117°
2026-04-21 20:12 49.51864 1.96487 2557 ft 150 kts 116°
2026-04-21 20:12 49.51295 1.97795 2356 ft 146 kts 115°
2026-04-21 20:13 49.50735 1.99085 2181 ft 142 kts 116°
2026-04-21 20:13 49.50197 2.00319 1977 ft 134 kts 115°
2026-04-21 20:13 49.49692 2.01490 1791 ft 134 kts 117°
2026-04-21 20:13 49.49161 2.02705 1627 ft 140 kts 116°
2026-04-21 20:14 49.48615 2.03966 1413 ft 142 kts 117°
2026-04-21 20:14 49.48069 2.05222 1220 ft 143 kts 119°
2026-04-21 20:14 49.47504 2.06522 980 ft 147 kts 121°
2026-04-21 20:14 49.46939 2.07824 805 ft 148 kts 119°
2026-04-21 20:15 49.46368 2.09128 629 ft 148 kts 121°
2026-04-21 20:15 49.45790 2.10439 451 ft 147 kts 120°
2026-04-21 20:15 49.45265 2.11731 333 ft 132 kts 122°
2026-04-21 20:15 49.44860 2.12622 319 ft 71 kts 124°
2026-04-21 20:16 49.44705 2.12984 312 ft 11 kts 123°
2026-04-21 20:16 49.44688 2.13023 312 ft 12 kts 123°
2026-04-21 20:16 49.44653 2.13158 310 ft 16 kts 97°
2026-04-21 20:16 49.44710 2.13296 307 ft 18 kts 12°
2026-04-21 20:17 49.44807 2.13204 309 ft 17 kts 305°
2026-04-21 20:17 49.44873 2.13052 313 ft 17 kts 302°
2026-04-21 20:17 49.44936 2.12909 317 ft 16 kts 303°
2026-04-21 20:17 49.44996 2.12768 321 ft 15 kts 302°
2026-04-21 20:18 49.45019 2.12668 323 ft 15 kts 276°
2026-04-21 20:18 49.45030 2.12436 327 ft 19 kts 274°
2026-04-21 20:18 49.45040 2.12243 328 ft 15 kts 279°
2026-04-21 20:18 49.45086 2.12104 331 ft 14 kts 304°
2026-04-21 20:19 49.45141 2.11977 334 ft 15 kts 303°
2026-04-21 20:19 49.45200 2.11842 333 ft 16 kts 303°
2026-04-21 20:19 49.45267 2.11685 333 ft 19 kts 304°
2026-04-21 20:19 49.45344 2.11512 336 ft 20 kts 304°
2026-04-21 20:20 49.45426 2.11329 338 ft 20 kts 304°
2026-04-21 20:20 49.45503 2.11148 345 ft 20 kts 302°
2026-04-21 20:20 49.45577 2.10975 358 ft 19 kts 304°
2026-04-21 20:20 49.45600 2.10923 353 ft 9 kts 304°
2026-04-21 20:21 49.45674 2.10895 355 ft 13 kts 26°
2026-04-21 20:21 49.45753 2.10962 353 ft 13 kts 27°
2026-04-21 20:21 49.45783 2.10986 348 ft 2 kts 27°
2026-04-21 20:21 49.45800 2.11000 351 ft 4 kts 27°
2026-04-21 20:22 49.45826 2.11024 352 ft 5 kts 38°
2026-04-21 20:22 49.45847 2.11065 348 ft 0 kts 57°
2026-04-21 20:22 49.45850 2.11072 348 ft 1 kts 58°
2026-04-21 20:23 49.45852 2.11077 353 ft 0 kts 57°